Saint Louis, MO

3:55 PM CST on February 12, 2016 (GMT -0600)
Lambert-Saint Louis International

Weather History for KSTL - March, 2013

Change the Weather History Date:

Friday, March 22, 2013

  Actual Average Record
Temperature  
Mean Temperature 38 °F 48 °F  
Max Temperature 43 °F 58 °F 88 °F (1907)
Min Temperature 32 °F 39 °F 13 °F (1885)
Degree Days  
Heating Degree Days 27 17  
Month to date heating degree days 560 452  
Since 1 July heating degree days 3877 4050  
Cooling Degree Days 0 0  
Month to date cooling degree days 0 0  
Year to date cooling degree days 0 0  
Moisture  
Dew Point 21 °F    
Average Humidity 50    
Maximum Humidity 61    
Minimum Humidity 39    
Precipitation  
Precipitation 0.00 in 0.12 in 1.72 in (1893)
Month to date precipitation 3.46 2.22  
Year to date precipitation 9.85 6.86  
Snow  
Snow 0.00 in 0.10 in 0.50 in (1955)
Month to date snowfall 1.5 2.0  
Since 1 July snowfall 15.1 17.0  
Snow Depth 0.00 in    
Sea Level Pressure  
Sea Level Pressure 30.05 in    
Wind  
Wind Speed 7 mph (ESE)    
Max Wind Speed 12 mph    
Max Gust Speed 15 mph    
Visibility 10 miles    
Events      
T = Trace of Precipitation, MM = Missing Value Source: NWS Daily Summary

Daily Weather History Graph

Daily Weather History Graph

Search for Another Location

Airport or City:

Trip Planner

Search our weather history database for the weather conditions in past years. The results will help you decide how hot, cold, wet, or windy it might be!

Date:

Astronomy

Mar. 22, 2013 Rise Set
Actual Time 7:01 AM CDT 7:15 PM CDT
Civil Twilight 6:34 AM CDT 7:42 PM CDT
Nautical Twilight 6:03 AM CDT 8:13 PM CDT
Astronomical Twilight 5:32 AM CDT 8:45 PM CDT
Moon 2:45 PM CDT (3/22) 3:59 AM CDT (3/22)
Length of Visible Light 13h 07m
Length of Day
12h 14m
Waxing Gibbous, 77% of the Moon is Illuminated
Mar 22
Waxing Gibbous
Mar 27
Full
Apr 2
Last Quarter
Apr 10
New
Apr 18
First Quarter

Hourly Weather History & Observations

Time (CDT) Temp. Windchill Dew Point Humidity Pressure Visibility Wind Dir Wind Speed Gust Speed Precip Events Conditions
12:51 AM 32.0 °F 24.8 °F 18.0 °F 56% 30.05 in 10.0 mi East 8.1 mph - N/A   Mostly Cloudy
1:51 AM 32.0 °F 24.2 °F 19.0 °F 59% 30.05 in 10.0 mi ESE 9.2 mph - N/A   Mostly Cloudy
2:51 AM 32.0 °F 24.8 °F 19.9 °F 61% 30.06 in 10.0 mi ESE 8.1 mph - N/A   Overcast
3:51 AM 33.1 °F 26.9 °F 19.0 °F 56% 30.04 in 10.0 mi ESE 6.9 mph - N/A   Overcast
4:51 AM 33.1 °F 27.7 °F 19.9 °F 59% 30.04 in 10.0 mi East 5.8 mph - N/A   Overcast
5:51 AM 32.0 °F 26.4 °F 19.9 °F 61% 30.05 in 10.0 mi East 5.8 mph - N/A   Overcast
6:51 AM 32.0 °F 25.6 °F 19.9 °F 61% 30.05 in 10.0 mi East 6.9 mph - N/A   Mostly Cloudy
7:51 AM 32.0 °F 24.8 °F 19.9 °F 61% 30.07 in 10.0 mi East 8.1 mph - N/A   Overcast
8:51 AM 33.1 °F 25.5 °F 21.0 °F 61% 30.08 in 10.0 mi East 9.2 mph - N/A   Overcast
9:51 AM 34.0 °F 26.6 °F 21.9 °F 61% 30.08 in 10.0 mi East 9.2 mph - N/A   Overcast
10:51 AM 35.1 °F 29.3 °F 21.0 °F 57% 30.08 in 10.0 mi East 6.9 mph - N/A   Overcast
11:51 AM 37.0 °F 31.6 °F 21.0 °F 52% 30.07 in 10.0 mi East 6.9 mph - N/A   Overcast
12:51 PM 39.9 °F 34.5 °F 21.9 °F 49% 30.05 in 10.0 mi ESE 8.1 mph - N/A   Mostly Cloudy
1:51 PM 41.0 °F 35.8 °F 21.0 °F 45% 30.04 in 10.0 mi ESE 8.1 mph - N/A   Overcast
2:51 PM 43.0 °F 38.2 °F 21.0 °F 42% 30.02 in 10.0 mi South 8.1 mph - N/A   Overcast
3:51 PM 43.0 °F 39.5 °F 19.9 °F 40% 30.02 in 10.0 mi South 5.8 mph - N/A   Overcast
4:51 PM 43.0 °F 39.5 °F 21.0 °F 42% 30.02 in 10.0 mi SSE 5.8 mph - N/A   Overcast
5:51 PM 42.1 °F 38.4 °F 21.9 °F 45% 30.01 in 10.0 mi SE 5.8 mph - N/A   Overcast
6:51 PM 42.1 °F 37.1 °F 21.9 °F 45% 30.02 in 10.0 mi East 8.1 mph - N/A   Overcast
7:51 PM 41.0 °F 36.4 °F 21.9 °F 47% 30.03 in 10.0 mi East 6.9 mph - N/A   Overcast
8:51 PM 39.9 °F 33.4 °F 24.1 °F 53% 30.04 in 10.0 mi ENE 10.4 mph - N/A   Overcast
9:51 PM 39.0 °F 34.8 °F 23.0 °F 53% 30.06 in 10.0 mi East 5.8 mph - N/A   Overcast
10:51 PM 39.0 °F 34.8 °F 23.0 °F 53% 30.06 in 10.0 mi ENE 5.8 mph - N/A   Overcast
11:51 PM 39.0 °F 34.0 °F 21.9 °F 50% 30.06 in 10.0 mi ENE 6.9 mph - N/A   Overcast